Weather in Charleston

United States     32°51′05″N   79°58′15″W
temp.,
°C
wind,
m/s
gust,
m/s
humid.,
%
clouds,
%
prec.,
mm/h
press.,
hPa
HPBL,
m
6 may, thu
thu623:00+22wsw3881100 0.0 1015325
02:00+21w3888100 0.0 1015324
05:00+19nw26965 0.0 1015218
08:00+20nne45740 0.0 1017431
11:00+24ese335771 0.0 10161265
14:00+22ese4366100 0.1 1015652
17:00+22ese4374100 0.7 1014581
20:00+19e358773 1.4 1013266
7 may, fri
fri723:00+18se23940 0.1 101372
02:00+16w35890 0.3 1012114
05:00+14w312780 0.0 1011311
08:00+15w413620 0.0 1012495
11:00+21wnw711360 0.0 10131520
14:00+24wnw711272 0.0 10122497
17:00+24nw711273 0.0 10122610
20:00+18nw49330 0.0 1015525
8 may, sat
sat823:00+14nw35420 0.0 1017173
02:00+12nw23480 0.0 101754
05:00+11wnw24540 0.0 101881
08:00+14w35510 0.0 1020172
11:00+21wnw46312 0.0 10201474
14:00+25w472669 0.0 10182226
17:00+25w573266 0.0 10172165
20:00+19wnw25485 0.0 1019180
9 may, sun
sun923:00+16ssw01565 0.0 102019
02:00+16sw12635 0.0 102045
05:00+16wsw12765 0.0 102034
08:00+19sw236910 0.0 1021154
11:00+25ssw574222 0.0 10211307
14:00+26ssw6841100 0.0 10201505
17:00+25ssw6951100 0.0 10181242
20:00+22s61175100 0.0 1018735
10 may, mon
mon1023:00+22s61276100 0.0 1017700
02:00+22ssw61280100 0.0 1016856
05:00+22ssw6148167 0.0 1015845
08:00+24sw61382100 0.0 1016809
11:00+28sw71253100 0.1 10161436
14:00+28ssw71054100 0.1 10141596
17:00+27wsw81357100 0.4 10141827
20:00+23wsw51262100 0.7 1015831